Location: Unspecified
(0.0000°N, 0.0000°E)
Time: 02:34:33
(UTC+00:00)

Envisat - Pass Details

Date: 26 May 2019
Orbit: 764 x 766 km, 98.1° (Epoch: 16 June)

Event Time Altitude Azimuth Distance (km) Brightness Sun altitude
Rises 19:52:59 0° 199° (SSW) 3,231 6.2 -26.9°
Reaches altitude 10° 19:56:07 10° 220° (SW) 2,302 5.6 -27.6°
Maximum altitude 19:59:12 16° 257° (WSW) 1,896 5.6 -28.3°
Drops below altitude 10° 20:02:17 10° 295° (WNW) 2,296 6.4 -29.0°
Sets 20:05:26 0° 316° (NW) 3,219 7.2 -29.7°
